Location: Archamps
(46.1365°N, 6.1329°E)
Time: 10:22:37
(UTC+00:00)

CZ-6A DEB - Pass Details

Date: 29 February 2024
Orbit: 823 x 884 km, 98.8° (Epoch: 12 April)

Event Time Altitude Azimuth Distance (km) Brightness Sun altitude
Rises 18:30:14 0° 218° (SW) 3,459 ? -12.8°
Reaches altitude 10° 18:34:00 10° 243° (WSW) 2,516 ? -13.4°
Maximum altitude 18:36:41 14° 272° (W) 2,263 ? -13.9°
Drops below altitude 10° 18:39:22 10° 302° (WNW) 2,505 ? -14.4°
Sets 18:43:08 0° 328° (NNW) 3,434 ? -15.0°
